Погода в Чегарачи

Узбекистан     37°23′34″N   66°36′05″E
темп.,
°C
ветер,
м/с
пор.,
м/с
влажн.,
%
обл.,
%
осадки,
мм/ч
давл.,
гПа
погр.,
м
4 августа, ср
ср423:00+31сз2390 0.0 100212
02:00+30сз33140 0.0 100217
05:00+28ссв12182 0.0 100314
08:00+31зюз11151 0.0 1005190
11:00+37з5490 0.0 10043093
14:00+39зсз8670 0.0 10023779
17:00+38з6580 0.0 10012870
20:00+34зсз33100 0.0 100117
5 августа, чт
чт523:00+31св33170 0.0 100131
02:00+29с11190 0.0 100211
05:00+26юз12240 0.0 100212
08:00+30ююз22190 0.0 1003234
11:00+35ю12150 0.0 10031178
14:00+39зюз34113 0.0 10013793
17:00+39сз12980 0.0 9993140
20:00+34сз81390 0.0 1000223
6 августа, пт
пт623:00+31сз56140 0.0 100163
02:00+29сз23180 0.0 100027
05:00+26ю12210 0.0 100214
08:00+30ююз11170 0.0 1003164
11:00+34зюз23140 0.0 10031057
14:00+39з45100 0.0 10013630
17:00+39з65100 0.0 10003432
20:00+34з44130 0.0 100027
7 августа, сб
сб723:00+31сз22160 0.0 100016
02:00+29с11170 0.0 100011
05:00+27в33200 0.0 100115
08:00+31в23150 0.0 1003252
11:00+36юв12130 0.0 10031304
14:00+39зюз43100 0.0 10012874
17:00+40з35100 0.0 10003391
20:00+36сз812110 0.0 1001184
8 августа, вс
вс823:00+32с33140 0.0 100216
02:00+30зсз11170 0.0 100111
05:00+27в23180 0.0 100313
08:00+31юв22160 0.0 1005229
11:00+35ююв33130 0.0 1005926
14:00+39вюв2580 0.0 10032334
17:00+40юз2590 0.0 10023132
20:00+36сз71190 0.0 1002160